Waarnemingen

Advertentie
Mijn weer
Norderney, Duitsland (10113): temperatuur & dauwpunt: 18.02.2017 09:00:00 - 24.02.2017 09:00:00 (CET)Norderney, Duitsland (10113): temperatuur 5cm & temperatuur -5cm: 18.02.2017 09:00:00 - 24.02.2017 09:00:00 (CET)Norderney, Duitsland (10113): temperatuur -20cm & temperatuur -100cm: 18.02.2017 09:00:00 - 24.02.2017 09:00:00 (CET)Norderney, Duitsland (10113): windsnelheid & windstoten: 18.02.2017 09:00:00 - 24.02.2017 09:00:00 (CET)Norderney, Duitsland (10113): windrichting: 18.02.2017 09:00:00 - 24.02.2017 09:00:00 (CET)Norderney, Duitsland (10113): luchtdruk: 18.02.2017 09:00:00 - 24.02.2017 09:00:00 (CET)Norderney, Duitsland (10113): zicht: 18.02.2017 09:00:00 - 24.02.2017 09:00:00 (CET)Norderney, Duitsland (10113): Zonneschijnduur: 18.02.2017 09:00:00 - 24.02.2017 09:00:00 (CET)Norderney, Duitsland (10113): neerslag: 18.02.2017 09:00:00 - 24.02.2017 09:00:00 (CET)
Datum & Tijd tt [°C] td [°C] tt 5cm [°C] tt -5cm [°C] tt -20cm [°C] tt -100cm [°C] ff [km/u] ff [kn] fx [km/u] fx [kn] dd ppp [hPa] vv [km] sd [min] rr [mm]
24.02.2017 09:00:00 4,0 0,2 3,5 2,6 4,0 5,1 32 18 42 23 NW 1006,2 7 27 0,0
24.02.2017 08:00:00 3,5 -0,1 2,3 2,9 4,1 5,1 40 22 60 32 NNW 1004,6 12 0 0,0
24.02.2017 07:00:00 3,5 0,9 2,4 3,1 4,2 5,1 42 23 55 30 NNW 1002,6 8 0 0,0
24.02.2017 06:00:00 3,4 1,4 2,7 3,2 4,3 5,1 35 19 59 32 NNW 1000,9 7 0 0,0
24.02.2017 05:00:00 3,2 1,6 2,5 3,3 4,4 5,1 48 26 66 36 NW 998,6 11 0 0,2
24.02.2017 04:00:00 3,7 1,5 2,9 3,4 4,5 5,1 40 22 72 39 NW 996,9 12 0 0,0
24.02.2017 03:00:00 3,8 1,5 2,9 3,6 4,7 5,1 47 26 70 38 NW 994,8 17 0 0,2
24.02.2017 02:00:00 4,0 1,3 3,2 3,7 4,8 5,1 42 23 69 37 NNW 992,9 13 0 0,0
24.02.2017 01:00:00 3,6 1,8 2,9 3,9 5,0 5,1 55 30 82 45 NNW 990,0 11 0 0,0
24.02.2017 00:00:00 3,7 1,0 2,8 4,2 5,1 5,1 71 38 86 46 NNW 986,2 13 0 0,1
23.02.2017 23:00:00 3,6 2,4 3,0 4,9 5,2 5,1 56 30 72 39 NNW 983,6 9 0 0,1
23.02.2017 22:00:00 5,1 4,3 4,6 4,9 5,3 5,1 35 19 50 27 W 982,0 6 0 0,1
23.02.2017 21:00:00 4,7 3,9 4,2 5,0 5,4 5,1 35 19 52 28 W 980,6 8 0 0,0
23.02.2017 20:00:00 4,9 3,9 4,5 5,3 5,5 5,1 32 17 59 32 W 978,6 7 0 0,5
23.02.2017 19:00:00 5,6 3,7 4,6 5,6 5,5 5,1 35 19 61 33 ZW 978,9 12 0 1,3
23.02.2017 18:00:00 5,9 4,0 5,0 6,0 5,5 5,1 32 17 63 34 ZW 980,1 6 0 0,6
23.02.2017 17:00:00 7,5 3,8 6,0 6,5 5,5 5,1 40 21 68 37 ZW 980,8 12 0 0,1
23.02.2017 16:00:00 8,7 4,8 8,1 6,9 5,2 5,1 38 20 62 34 ZW 981,4 19 20 0,0
23.02.2017 15:00:00 8,2 3,8 7,6 6,2 5,0 5,1 38 20 79 43 ZW 982,2 24 1 3,4
23.02.2017 14:00:00 7,7 7,0 7,3 6,1 4,8 5,1 32 17 55 30 Z 983,9 8 0 0,9
23.02.2017 13:00:00 7,5 6,8 7,2 5,6 4,6 5,1 27 15 52 28 Z 986,6 5 0 0,1
23.02.2017 12:00:00 7,1 6,6 6,7 4,7 4,5 5,1 27 14 41 22 ZW 989,1 13 0 2,6
23.02.2017 11:00:00 4,4 4,0 4,2 4,2 4,5 5,1 20 11 30 16 ZZO 991,0 2,9 0 2,3
23.02.2017 10:00:00 3,8 3,0 3,5 4,1 4,5 5,1 13 7 19 10 ZO 993,1 8 0 1,8
23.02.2017 09:00:00 3,7 2,5 3,2 4,1 4,5 5,1 11 6 23 13 Z 995,4 8 0 1,6
23.02.2017 08:00:00 4,3 3,0 3,6 4,1 4,5 5,0 16 9 23 13 ZW 996,9 6 0 1,6
23.02.2017 07:00:00 4,9 3,8 4,3 4,1 4,5 5,0 15 8 25 14 ZW 997,8 7 0 0,1
23.02.2017 06:00:00 5,1 3,6 4,6 4,0 4,6 5,0 15 8 34 18 WZW 998,3 10 0 0,0
23.02.2017 05:00:00 4,9 3,2 4,4 3,9 4,6 5,0 21 11 34 19 WZW 998,7 2,3 0 0,0
23.02.2017 04:00:00 5,0 3,2 4,3 3,8 4,7 5,0 23 12 37 20 WZW 999,4 3,1 0 0,0
23.02.2017 03:00:00 5,1 3,2 4,4 3,9 4,7 5,0 23 12 42 23 W 999,8 4,9 0 0,0
23.02.2017 02:00:00 5,3 3,1 4,4 3,9 4,8 5,0 32 17 45 24 W 999,8 6 0 0,0
23.02.2017 01:00:00 5,2 3,0 4,3 4,0 4,9 5,0 31 17 47 26 W 999,9 6 0 0,0
23.02.2017 00:00:00 5,5 2,7 4,6 4,0 5,1 5,0 36 19 53 28 W 999,6 9 0 0,0
22.02.2017 23:00:00 5,7 2,8 4,8 4,1 5,2 4,9 37 20 49 27 W 999,9 11 0 0,0
22.02.2017 22:00:00 5,2 3,2 4,2 4,1 5,4 4,9 28 15 46 25 WZW 999,7 7 0 0,0
22.02.2017 21:00:00 5,2 2,8 4,3 4,3 5,6 4,9 32 17 49 26 W 999,6 11 0 0,0
22.02.2017 20:00:00 5,5 2,5 4,5 4,5 5,8 4,9 36 19 50 27 W 999,5 12 0 0,0
22.02.2017 19:00:00 5,8 2,3 4,7 4,9 6,1 4,9 39 21 51 27 W 999,2 16 0 0,0
22.02.2017 18:00:00 5,3 3,0 4,2 5,7 6,3 4,9 36 20 49 27 W 999,0 13 0 0,0
22.02.2017 17:00:00 5,5 3,1 5,2 6,5 6,4 4,9 34 18 48 26 W 999,2 12 0 0,0
22.02.2017 16:00:00 5,6 3,0 5,6 7,1 6,5 4,9 29 16 54 29 W 999,2 15 0 0,0
22.02.2017 15:00:00 6,0 3,3 6,2 7,9 6,4 4,9 31 17 47 26 WZW 999,3 18 2 0,0
22.02.2017 14:00:00 6,0 3,0 6,5 8,3 6,2 4,8 34 18 46 25 W 999,6 12 20 0,0
22.02.2017 13:00:00 6,0 3,3 6,7 8,0 6,0 4,8 32 18 48 26 W 999,8 10 15 0,0
22.02.2017 12:00:00 6,2 4,3 6,5 8,1 5,8 4,8 27 15 42 23 WZW 1000,0 8 50 0,0
22.02.2017 11:00:00 6,1 3,9 6,9 6,6 5,7 4,8 30 16 49 27 W 999,9 11 55 0,0
22.02.2017 10:00:00 6,0 4,3 5,8 6,1 5,7 4,8 37 20 52 28 W 999,3 9 12 0,0
22.02.2017 09:00:00 6,1 5,5 5,8 6,1 5,7 4,8 31 17 56 30 WZW 999,0 5 0 0,3
22.02.2017 08:00:00 6,6 5,6 6,2 6,3 5,7 4,8 35 19 68 37 WZW 998,3 3,6 0 0,0
22.02.2017 07:00:00 7,2 6,2 6,7 6,4 5,7 4,8 42 23 71 39 WZW 997,8 8 0 0,1
22.02.2017 06:00:00 7,5 6,6 6,9 6,4 5,6 4,8 44 24 70 38 WZW 998,1 8 0 0,4
22.02.2017 05:00:00 7,8 6,9 7,2 6,5 5,5 4,8 42 23 68 37 WZW 998,6 6 0 0,6
22.02.2017 04:00:00 8,0 7,2 7,5 6,4 5,4 4,8 40 22 67 36 WZW 999,1 8 0 0,8
22.02.2017 03:00:00 8,0 7,5 7,6 6,2 5,2 4,7 34 18 57 31 ZW 1000,2 3,0 0 1,3
22.02.2017 02:00:00 7,9 7,6 7,6 5,9 5,1 4,7 34 19 51 28 ZW 1001,1 3,4 0 0,8
22.02.2017 01:00:00 7,4 7,0 7,1 5,4 5,1 4,7 27 15 45 25 ZZW 1002,4 1,6 0 0,3
22.02.2017 00:00:00 6,7 5,6 6,2 5,1 5,0 4,7 27 14 47 26 ZZW 1003,9 3,2 0 0,0
21.02.2017 23:00:00 6,0 4,3 5,6 4,7 5,1 4,7 24 13 44 24 ZZW 1005,5 7 0 0,0
21.02.2017 22:00:00 5,4 3,9 4,9 4,5 5,2 4,7 19 10 34 18 ZZW 1007,4 19 0 0,0
21.02.2017 21:00:00 5,3 4,0 4,7 4,6 5,4 4,7 21 11 34 18 ZZW 1008,7 20 0 0,0
21.02.2017 20:00:00 5,2 4,2 4,5 4,7 5,6 4,7 18 10 29 16 ZW 1009,8 15 0 0,0
21.02.2017 19:00:00 5,2 3,9 4,1 5,1 5,9 4,7 17 9 29 15 WZW 1010,9 9 0 0,0
21.02.2017 18:00:00 4,8 3,8 4,0 5,9 6,1 4,7 21 12 32 18 WZW 1011,6 5 0 0,0
21.02.2017 17:00:00 4,8 3,7 4,5 7,0 6,1 4,6 15 8 28 15 WZW 1011,7 5 32 0,0
21.02.2017 16:00:00 5,0 3,7 5,7 8,0 6,0 4,6 20 11 33 18 W 1012,1 6 58 0,0
21.02.2017 15:00:00 5,5 4,0 6,9 8,6 5,8 4,6 24 13 34 18 W 1012,1 7 60 0,0
21.02.2017 14:00:00 5,4 3,8 7,5 8,6 5,4 4,6 24 13 36 19 W 1012,1 7 60 0,0
21.02.2017 13:00:00 5,4 4,0 7,3 7,9 5,0 4,6 26 14 36 20 W 1012,0 6 60 0,0
21.02.2017 12:00:00 5,3 4,1 6,9 6,7 4,7 4,6 22 12 30 16 W 1011,7 7 60 0,0
21.02.2017 11:00:00 5,0 4,1 5,9 5,2 4,6 4,6 20 11 34 19 W 1011,3 7 27 0,0
21.02.2017 10:00:00 4,7 3,8 4,8 4,5 4,6 4,6 23 13 33 18 W 1010,7 6 40 0,0
21.02.2017 09:00:00 4,4 3,7 3,6 4,2 4,6 4,5 22 12 35 19 W 1010,2 6 0 0,0
21.02.2017 08:00:00 4,5 3,8 4,1 4,2 4,7 4,5 24 13 34 19 W 1009,6 6 0 0,0
21.02.2017 07:00:00 4,4 3,8 3,8 4,3 4,8 4,5 26 14 35 19 W 1009,0 3,8 0 0,0
21.02.2017 06:00:00 4,4 3,7 4,0 4,5 4,8 4,5 27 15 36 19 W 1008,8 3,5 0 0,0
21.02.2017 05:00:00 4,7 3,8 4,2 4,5 4,9 4,5 33 18 44 24 W 1008,4 6 0 0,0
21.02.2017 04:00:00 4,6 3,7 4,0 4,5 5,0 4,5 25 13 36 19 W 1008,4 7 0 0,0
21.02.2017 03:00:00 4,6 4,1 4,2 4,6 5,1 4,5 27 14 36 19 W 1008,5 6 0 0,0
21.02.2017 02:00:00 4,5 4,1 4,1 4,8 5,2 4,5 24 13 35 19 W 1008,9 4,9 0 0,0
21.02.2017 01:00:00 5,0 4,6 4,5 4,9 5,3 4,4 23 13 34 18 W 1009,1 4,8 0 0,0
21.02.2017 00:00:00 5,0 4,5 4,4 5,2 5,4 4,4 24 13 35 19 W 1008,7 6 0 0,0
20.02.2017 23:00:00 5,5 5,1 5,0 5,5 5,5 4,4 28 15 39 21 W 1008,9 7 0 0,0
20.02.2017 22:00:00 5,4 5,2 5,2 5,7 5,6 4,4 27 15 39 21 W 1008,8 4,9 0 0,0
20.02.2017 21:00:00 5,6 5,4 5,4 5,9 5,6 4,4 34 18 46 25 W 1008,4 3,8 0 0,0
20.02.2017 20:00:00 6,0 5,6 5,8 6,1 5,7 4,4 36 19 52 28 W 1008,0 3,4 0 0,0
20.02.2017 19:00:00 6,0 5,7 5,8 6,2 5,7 4,4 32 17 53 29 W 1007,5 5 0 0,6
20.02.2017 18:00:00 5,9 5,3 5,7 6,6 5,7 4,4 34 18 49 27 W 1007,5 4,0 0 0,1
20.02.2017 17:00:00 7,1 6,4 6,8 7,0 5,7 4,4 32 17 61 33 WZW 1007,6 7 0 0,0
20.02.2017 16:00:00 8,2 7,3 8,0 7,3 5,5 4,3 31 17 54 29 WZW 1007,9 11 0 0,0
20.02.2017 15:00:00 7,7 7,4 7,6 7,3 5,3 4,3 32 17 51 28 WZW 1008,4 2,3 0 0,0
20.02.2017 14:00:00 7,5 7,1 7,7 6,9 5,1 4,3 31 17 57 31 WZW 1008,7 2,8 0 0,0
20.02.2017 13:00:00 7,7 7,4 7,6 6,4 5,0 4,3 32 18 51 28 WZW 1009,3 4,0 0 0,0
20.02.2017 12:00:00 7,2 7,0 7,2 6,1 4,8 4,3 30 16 46 25 WZW 1010,2 3,4 0 0,0
20.02.2017 11:00:00 6,5 6,3 6,5 5,7 4,7 4,3 30 16 49 26 ZW 1010,3 3,5 0 0,2
20.02.2017 10:00:00 6,2 6,0 6,2 5,4 4,6 4,3 32 17 50 27 ZW 1010,9 1,8 0 0,5
20.02.2017 09:00:00 6,0 5,7 5,9 5,1 4,6 4,3 33 18 46 25 ZW 1011,3 1,3 0 0,1
20.02.2017 08:00:00 6,0 5,4 5,7 5,0 4,5 4,3 32 18 51 27 ZW 1011,5 1,7 0 0,0
20.02.2017 07:00:00 5,8 5,0 5,5 4,9 4,5 4,2 29 16 45 24 ZW 1012,2 6 0 0,0
20.02.2017 06:00:00 5,6 4,8 5,4 4,7 4,5 4,2 24 13 41 22 ZZW 1013,2 6 0 0,0
20.02.2017 05:00:00 5,6 4,7 5,3 4,7 4,5 4,2 25 14 42 23 ZZW 1013,5 5 0 0,0
20.02.2017 04:00:00 5,6 4,7 5,2 4,7 4,5 4,2 26 14 41 22 ZW 1014,1 5 0 0,0
20.02.2017 03:00:00 5,1 4,5 4,9 4,6 4,5 4,2 22 12 36 20 ZW 1015,3 5 0 0,0
20.02.2017 02:00:00 5,2 4,7 4,9 4,7 4,6 4,2 21 11 35 19 ZW 1016,0 4,8 0 0,0
20.02.2017 01:00:00 5,2 4,8 5,0 4,7 4,6 4,2 23 12 36 19 ZW 1016,6 4,3 0 0,0
20.02.2017 00:00:00 5,3 4,9 5,1 4,7 4,6 4,2 21 11 30 16 ZW 1017,3 7 0 0,0
19.02.2017 23:00:00 4,8 4,6 4,6 4,7 4,7 4,2 17 9 29 16 ZW 1017,4 8 0 0,0
19.02.2017 22:00:00 4,4 4,0 4,4 4,8 4,7 4,2 14 8 27 14 ZW 1017,5 0,6 0 0,0
19.02.2017 21:00:00 4,7 4,0 4,4 4,8 4,8 4,1 19 10 31 17 WZW 1018,0 18 0 0,0
19.02.2017 20:00:00 4,1 3,7 4,0 5,1 4,9 4,1 23 12 29 16 W 1018,0 8 0 0,0
19.02.2017 19:00:00 4,5 4,5 4,4 5,3 5,0 4,1 18 10 27 15 WZW 1017,4 7 0 0,0
19.02.2017 18:00:00 4,1 4,0 4,1 5,7 5,1 4,1 19 10 30 16 W 1017,2 0,2 0 0,0
19.02.2017 17:00:00 4,3 3,8 4,5 6,4 5,1 4,1 21 12 30 16 W 1017,0 3,6 4 0,0
19.02.2017 16:00:00 4,7 3,8 5,5 7,1 4,9 4,1 18 10 30 16 W 1016,8 4,3 52 0,0
19.02.2017 15:00:00 4,5 3,6 5,6 7,5 4,6 4,1 22 12 32 17 W 1016,5 4,0 52 0,0
19.02.2017 14:00:00 4,5 3,6 5,8 6,9 4,2 4,1 23 13 35 19 W 1016,6 4,9 31 0,0
19.02.2017 13:00:00 4,9 3,9 5,5 6,4 3,9 4,1 23 12 40 22 W 1016,9 4,7 8 0,0
19.02.2017 12:00:00 5,3 4,4 5,4 5,4 3,6 4,1 27 14 40 22 WZW 1017,2 4,2 0 0,0
19.02.2017 11:00:00 5,7 5,0 5,5 4,4 3,5 4,1 22 12 36 19 WZW 1017,2 3,8 0 0,0
19.02.2017 10:00:00 4,7 4,2 4,6 3,9 3,4 4,1 24 13 40 21 ZW 1017,0 2,2 0 0,0
19.02.2017 09:00:00 4,4 3,9 4,2 3,6 3,3 4,1 23 13 38 20 ZW 1017,0 1,8 0 0,7
19.02.2017 08:00:00 4,1 3,5 3,8 3,5 3,3 4,1 24 13 37 20 ZW 1016,9 1,4 0 1,9
19.02.2017 07:00:00 4,4 3,1 3,9 3,4 3,2 4,0 23 12 38 21 ZW 1016,8 3,0 0 0,0
19.02.2017 06:00:00 4,4 3,2 4,0 3,2 3,2 4,0 23 13 36 19 ZZW 1017,2 3,4 0 0,0
19.02.2017 05:00:00 4,1 3,0 3,7 3,0 3,1 4,0 21 11 35 19 ZZW 1018,0 3,3 0 0,0
19.02.2017 04:00:00 3,8 2,6 3,3 2,8 3,1 4,0 20 11 35 19 ZZW 1018,6 3,5 0 0,0
19.02.2017 03:00:00 3,3 2,3 2,8 2,6 3,2 4,0 16 9 32 18 ZZW 1019,2 3,2 0 0,0
19.02.2017 02:00:00 2,7 2,0 2,2 2,7 3,2 4,0 15 8 36 20 ZZW 1020,3 3,1 0 0,0
19.02.2017 01:00:00 3,1 2,3 2,7 2,6 3,2 4,0 17 9 27 15 ZW 1021,5 3,9 0 0,0
19.02.2017 00:00:00 2,6 2,2 2,3 2,3 3,3 4,0 13 7 27 15 ZW 1022,0 3,0 0 0,0
18.02.2017 23:00:00 2,5 2,5 1,9 2,4 3,5 4,0 17 9 26 14 ZZW 1021,9 2,7 0 0,0
18.02.2017 22:00:00 1,5 1,3 1,4 2,7 3,6 4,0 13 7 21 11 ZW 1022,5 0,1 0 0,0
18.02.2017 21:00:00 3,0 2,5 2,3 2,7 3,8 3,9 11 6 21 11 ZW 1023,0 2,4 0 0,0
18.02.2017 20:00:00 3,5 3,0 2,3 3,1 4,0 3,9 11 6 23 12 ZZW 1023,5 3,9 0 0,0
18.02.2017 19:00:00 3,6 2,8 2,4 3,8 4,1 3,9 14 8 23 12 ZZW 1023,9 4,8 0 0,0
18.02.2017 18:00:00 4,2 3,1 3,5 4,6 4,1 3,9 13 7 24 13 ZZW 1024,1 6 0 0,0
18.02.2017 17:00:00 4,0 3,0 3,9 4,9 4,1 3,9 14 8 24 13 ZZW 1024,4 7 0 0,0
18.02.2017 16:00:00 4,0 3,0 4,2 5,1 4,0 3,9 13 7 26 14 ZZW 1024,8 11 0 0,0
18.02.2017 15:00:00 3,6 2,8 3,9 5,1 3,8 3,9 13 7 26 14 ZZW 1025,4 12 0 0,0
18.02.2017 14:00:00 3,1 2,5 3,6 4,9 3,7 3,9 16 9 25 13 ZZW 1025,8 11 0 0,0
18.02.2017 13:00:00 2,6 2,2 3,2 4,4 3,5 3,9 16 8 29 16 ZW 1026,5 11 0 0,0
18.02.2017 12:00:00 2,6 2,3 3,0 4,0 3,5 3,8 14 8 24 13 ZW 1027,0 3,7 0 0,0
18.02.2017 11:00:00 2,5 2,1 2,8 3,7 3,4 3,8 10 5 21 11 WZW 1026,9 3,9 0 0,0
18.02.2017 10:00:00 2,9 2,3 3,0 3,5 3,4 3,8 13 7 19 10 WZW 1026,8 7 0 0,0
18.02.2017 09:00:00 3,4 2,6 3,1 3,2 3,4 3,8 9 5 18 10 WZW 1026,7 15 0 0,0

tt = temperatuur
td = dauwpunt
tt 5cm = temperatuur 5cm
tt -5cm = temperatuur -5cm
tt -20cm = temperatuur -20cm
tt -100cm = temperatuur -100cm
ff = windsnelheid
fx = windstoten
dd = windrichting
ppp = luchtdruk
vv = zicht
sd = Zonneschijnduur
rr = neerslag

Weerstations in de omgeving